Wind_Speed
3 3 10 10 6 6 1 3 3 1 2 4 9 12 15 8 8 10 9 9 10 10 8 22 22 20 19 17 14 11 8 6 7 8 9 9 12 16 14 18 17 17 17 17
3 10 7 8 9 10 11 4 5 0 2 2 2 13 13 9 11 15 14 10 11 8 9 13 25 21 18 16 14 11 7 6 7 8 8 8 13 12 17 14 13 15 17 20
6 4 2 10 5 7 7 6 4 5 3 4 3 9 6 6 11 7 13 12 10 15 16 13 15 23 19 18 16 11 7 6 7 8 9 10 12 13 12 18 19 19 19 20
7 5 5 3 5 6 5 3 5 4 3 4 3 5 6 4 6 6 8 10 11 13 14 15 14 21 22 18 16 10 7 5 6 7 8 9 10 12 15 18 19 21 22 22
5 5 4 4 4 5 5 2 4 2 2 3 2 2 8 3 7 9 9 9 9 11 16 14 12 23 24 22 16 10 6 5 6 7 7 8 10 12 16 18 20 22 21 20
0 1 2 3 3 2 6 5 5 4 3 1 8 7 5 5 6 3 5 8 9 11 14 13 19 24 24 18 13 9 6 6 7 7 7 8 10 13 16 18 20 21 21 19
1 3 2 2 4 6 1 5 2 3 2 6 4 4 9 6 6 7 11 9 9 11 12 11 11 14 21 18 13 10 8 7 6 6 7 8 9 11 13 17 20 22 20 19
7 5 9 6 5 7 6 4 5 7 4 4 4 6 6 5 4 5 10 10 9 9 10 10 11 17 21 19 15 12 10 7 5 6 7 7 8 11 14 17 20 23 23 21
5 4 2 3 2 2 6 4 3 5 1 3 4 7 8 3 3 6 9 9 10 10 10 11 10 19 23 22 17 14 10 7 6 6 5 7 9 12 15 18 20 22 22 19
5 1 1 2 0 1 2 1 2 2 2 4 4 5 6 7 9 8 9 10 9 9 9 9 9 18 24 21 17 13 10 8 6 5 4 7 9 11 14 17 20 21 19 21
5 4 1 2 7 8 2 2 1 2 4 5 2 6 6 7 13 14 11 9 10 10 11 10 8 20 24 20 17 14 11 9 7 4 3 5 8 10 13 16 19 20 20 21
5 5 5 8 1 2 4 6 6 4 6 4 3 7 2 5 10 13 10 9 7 7 8 8 8 19 21 20 18 17 13 11 8 4 2 4 7 10 13 16 17 18 19 19
7 2 2 5 3 1 6 6 4 3 3 8 4 6 3 5 5 6 10 8 8 7 8 7 7 7 18 21 20 18 15 12 8 4 3 3 6 9 13 15 17 16 18 19
2 4 7 8 4 5 5 7 13 8 6 6 14 6 5 4 3 5 8 9 9 8 9 7 7 8 17 22 23 20 16 12 8 5 4 2 4 7 11 13 13 15 16 19
3 5 5 7 5 4 5 5 11 18 16 12 8 17 15 6 8 8 7 6 6 8 8 9 8 8 14 19 21 19 16 13 11 8 6 3 2 6 8 11 13 14 15 16
2 3 3 3 5 6 11 14 10 17 17 17 12 11 9 6 4 4 9 9 8 9 10 10 8 8 10 19 24 22 20 17 14 11 9 5 1 4 6 10 12 12 13 16
6 7 4 5 3 5 7 21 22 18 7 12 17 18 8 8 10 12 8 9 12 10 10 9 10 11 16 23 27 27 23 18 16 13 11 7 3 3 3 7 9 11 12 16
6 6 5 4 4 3 7 3 14 21 18 19 6 9 15 19 19 4 7 9 12 11 9 8 7 12 22 24 26 23 21 20 18 14 13 9 6 4 2 4 6 9 11 13
6 5 4 5 4 6 7 5 7 9 11 22 21 22 12 5 1 6 8 9 10 8 7 8 15 16 20 23 24 24 23 21 18 17 16 11 8 5 3 3 6 7 9 11
11 9 3 3 4 7 5 0 2 4 5 5 18 21 17 7 7 13 2 3 6 5 5 9 9 13 17 22 25 26 24 22 22 20 19 13 10 8 7 2 1 3 6 7
6 3 10 3 2 7 7 4 2 5 4 1 3 10 10 9 7 3 1 1 1 4 9 7 13 18 20 22 26 26 23 26 26 19 18 17 13 12 9 6 2 0 2 2
8 7 4 2 2 8 7 3 6 3 2 2 3 2 6 6 6 2 2 1 2 4 3 8 11 14 15 21 26 25 27 30 23 20 21 20 16 15 12 9 6 4 2 2
4 2 3 8 7 1 5 2 4 2 1 2 2 2 3 7 4 5 2 4 5 6 8 11 14 13 16 21 27 24 33 27 23 22 24 23 20 17 15 14 11 8 5 2
10 10 4 3 4 5 5 5 5 4 2 2 3 4 2 3 3 1 3 2 2 3 4 10 13 12 16 24 29 35 26 23 24 26 26 24 23 21 19 16 13 10 8 6
6 5 7 9 13 7 7 4 9 7 7 6 5 2 5 2 3 4 3 5 4 5 6 9 13 13 19 20 27 30 31 27 25 28 28 28 27 25 22 20 17 14 10 9
4 9 6 4 5 2 6 16 15 9 11 9 7 3 2 4 5 3 5 5 5 5 6 8 12 14 19 18 21 23 25 28 31 28 28 29 30 29 26 23 19 15 13 12
Wind_Direction
202 157 210 196 203 249 56 208 308 149 321 151 228 261 260 253 236 227 222 204 194 185 184 157 152 148 143 148 154 167 180 209 263 294 310 309 314 320 325 328 330 330 327 320
108 238 220 209 210 227 260 269 262 202 194 188 253 268 265 244 241 218 203 207 194 170 160 155 152 154 160 161 163 173 184 226 278 292 298 305 313 317 321 331 331 324 314 309
166 212 186 198 208 196 226 205 216 237 187 251 14 289 271 269 236 206 202 199 188 173 168 162 157 163 168 172 169 178 197 241 276 287 302 312 318 317 330 337 332 330 320 316
228 224 156 187 219 156 223 237 173 166 103 228 136 272 297 249 244 211 179 185 194 166 172 165 160 165 177 175 171 183 201 243 269 286 306 322 320 320 326 328 325 322 322 319
234 157 158 169 202 181 219 127 136 128 154 53 237 76 266 253 249 228 213 198 199 171 167 168 169 169 174 170 175 183 203 239 261 289 309 316 319 323 325 325 326 330 331 323
144 270 160 160 58 337 143 72 44 45 74 344 226 170 272 211 221 233 187 202 187 161 164 164 166 167 165 167 171 182 203 237 263 291 309 319 325 330 326 330 331 330 322 318
299 216 143 136 86 3 63 106 17 352 359 219 325 158 247 250 236 209 179 179 166 153 151 155 150 151 159 166 175 186 206 225 253 289 309 322 331 324 324 328 329 325 320 318
180 275 169 181 202 181 188 180 167 200 203 248 360 229 246 228 221 175 151 154 151 154 157 158 158 164 168 172 182 194 205 225 256 288 304 322 324 326 328 332 329 325 319 311
188 249 15 43 70 134 187 205 190 100 48 64 219 275 290 192 111 109 150 156 173 171 173 170 174 177 175 177 188 197 204 217 239 264 300 325 333 334 337 334 331 328 322 316
182 45 320 279 53 64 184 203 101 3 180 253 274 271 239 210 201 181 164 181 185 180 174 177 172 169 176 184 189 194 201 214 236 266 308 330 332 339 336 334 337 336 329 322
156 125 196 122 203 184 138 215 221 153 169 182 188 254 225 223 194 190 197 191 191 181 182 176 169 172 178 182 189 193 197 209 225 244 299 323 338 340 342 346 345 343 329 328
193 154 204 205 197 210 201 207 185 160 236 219 176 261 340 305 202 180 188 197 200 182 180 169 168 170 176 185 190 193 196 207 216 227 283 319 336 350 356 357 350 349 344 342
183 224 79 328 351 293 215 196 186 117 98 221 185 259 330 346 76 158 164 185 184 173 162 164 164 180 182 192 193 194 198 205 209 221 257 315 350 1 8 0 351 358 352 347
200 160 171 194 166 133 199 208 198 181 200 203 229 284 278 237 163 139 164 172 177 183 174 179 184 192 193 199 195 194 196 202 206 218 237 283 5 8 11 1 356 8 3 351
185 213 188 241 198 172 202 208 205 213 217 205 218 218 247 211 208 206 198 191 185 200 199 204 195 203 200 198 197 196 198 201 205 209 218 225 359 15 15 4 8 8 14 3
169 217 195 287 211 204 248 242 225 224 232 245 265 270 237 247 229 209 217 192 212 222 219 212 208 193 200 197 199 198 200 203 207 207 217 220 294 1 13 13 18 8 7 14
188 158 142 254 237 123 277 236 220 225 200 203 226 237 244 262 208 218 217 211 223 228 220 205 201 202 200 203 206 200 200 200 207 210 221 213 246 320 3 11 12 12 23 23
205 167 166 183 140 198 241 198 213 213 228 217 243 214 217 230 247 226 205 194 218 220 222 219 200 205 211 211 205 203 198 203 207 214 224 213 235 268 325 15 9 360 12 16
198 190 174 160 201 300 283 197 162 165 257 223 224 235 220 201 218 263 224 210 215 201 208 213 211 215 211 203 198 195 195 203 208 218 228 215 228 243 271 37 17 358 358 9
196 228 183 148 164 208 241 53 0 132 288 236 208 228 228 146 239 256 216 250 195 173 181 194 184 192 194 195 192 192 199 205 214 219 225 217 222 236 244 195 68 14 356 8
177 182 222 192 217 281 251 177 176 93 250 282 231 233 185 187 202 235 342 309 96 155 195 174 181 189 196 191 191 200 204 216 224 221 220 219 220 230 232 238 206 311 19 25
194 160 188 145 138 265 160 95 179 216 354 321 314 275 133 127 124 157 250 89 157 181 186 193 188 203 198 197 197 206 214 225 225 219 216 215 215 224 228 229 222 214 240 325
238 261 202 184 211 242 204 262 230 134 239 285 108 40 122 117 135 153 193 203 219 216 211 204 205 212 211 209 210 210 228 226 221 215 215 215 212 217 225 228 219 215 222 205
346 16 317 350 273 257 251 256 246 228 224 206 145 133 111 110 130 99 345 293 256 242 224 213 201 207 219 220 221 229 232 232 223 220 219 216 217 212 216 228 237 230 222 223
275 331 321 293 290 280 264 262 344 253 225 206 213 194 174 175 269 219 233 273 275 261 247 219 214 222 240 235 235 239 238 234 228 228 228 221 218 217 215 218 223 232 236 235
216 252 253 282 351 334 291 323 320 257 236 214 201 242 205 181 222 219 247 240 242 245 259 248 247 245 258 259 254 253 246 237 232 227 226 224 219 217 216 215 214 222 228 226
Height
765 774 773 768 769 763 759 762 765 765 760 762 767 760 750 750 751 750 751 752 753 753 753 756 760 765 769 772 775 778 780 782 784 784 783 782 780 779 778 777 776 774 772 771
768 770 762 761 763 765 767 763 765 762 764 766 761 757 746 743 736 733 740 745 746 750 753 755 757 762 766 770 773 776 778 780 782 782 782 781 779 776 775 774 772 771 770 768
769 754 750 757 758 762 764 766 762 762 765 765 766 761 742 724 726 727 728 729 735 741 748 752 755 759 764 768 770 773 775 778 780 781 780 778 776 774 772 769 768 767 766 763
757 749 750 755 756 758 762 756 756 760 766 781 764 782 742 720 723 721 724 729 731 737 742 746 750 755 760 765 768 770 773 775 778 778 777 775 774 771 768 766 765 763 761 758
753 752 754 756 754 754 759 756 759 759 765 777 765 797 742 723 723 721 724 726 728 733 737 743 747 750 756 761 764 767 770 773 775 774 773 772 770 768 765 764 762 759 756 755
755 756 754 753 761 757 760 762 766 772 779 820 769 769 748 724 711 709 718 722 724 730 734 740 744 749 755 759 762 764 767 770 771 771 770 769 766 764 763 761 757 755 753 752
757 757 758 756 763 763 760 769 803 809 836 805 762 767 739 709 703 704 713 719 723 726 732 738 743 748 753 756 759 762 765 767 768 768 767 765 763 762 761 758 754 752 749 747
764 769 760 756 753 759 769 766 780 788 793 773 765 760 718 705 702 702 707 715 722 727 730 735 740 745 749 752 756 759 762 764 765 765 764 762 761 759 757 754 752 749 746 744
764 750 758 758 755 753 763 773 758 787 824 801 760 736 711 704 706 710 713 717 722 725 729 733 738 740 744 749 752 755 758 761 762 763 761 759 757 756 753 751 749 745 743 740
742 755 760 762 757 760 757 758 766 791 783 789 756 735 713 712 710 712 714 718 720 722 726 730 733 736 741 745 749 752 755 757 759 758 757 755 755 753 751 748 745 742 740 737
736 738 767 761 763 758 767 763 765 762 764 775 771 728 703 694 698 709 711 713 716 716 720 725 731 734 738 742 746 749 751 754 755 755 753 753 752 750 749 746 743 740 738 735
734 742 752 759 746 747 748 749 747 749 749 769 772 729 693 696 689 696 707 711 713 713 717 722 727 730 734 738 742 745 748 750 752 751 750 750 750 748 746 743 741 738 735 732
737 759 768 756 754 751 751 747 743 752 761 752 762 723 698 694 694 697 705 710 712 714 717 721 727 728 730 734 738 741 743 746 747 747 747 747 747 746 743 741 739 736 733 730
727 746 745 733 723 744 749 741 734 738 769 748 718 732 698 699 702 701 705 708 711 714 716 720 723 724 725 729 733 736 739 741 742 744 745 745 745 743 741 739 738 734 731 728
732 739 744 741 731 729 730 735 737 734 729 728 720 713 700 707 704 707 708 707 711 712 714 716 717 720 720 724 728 732 735 737 739 740 742 743 742 740 738 737 734 732 729 727
741 734 739 751 733 734 728 728 734 728 727 722 727 721 703 693 697 706 705 708 706 707 708 710 711 713 715 717 721 726 730 733 735 737 739 740 739 738 736 733 732 731 728 724
741 740 748 750 730 737 734 709 711 707 728 716 723 692 694 694 696 694 700 703 699 698 700 701 702 704 706 710 716 720 724 728 731 733 736 735 735 735 733 731 730 729 726 723
732 730 728 738 741 740 683 677 683 690 686 696 705 698 683 682 677 691 691 690 691 692 694 694 694 696 699 705 711 716 720 723 726 729 732 731 731 732 730 729 728 728 726 722
722 714 715 721 734 699 674 676 686 693 679 672 679 674 676 682 679 679 677 679 678 681 682 685 685 689 694 699 704 711 715 718 721 723 726 727 728 729 729 726 726 726 723 721
712 713 709 715 711 721 676 672 675 672 686 656 660 661 668 682 683 671 674 676 674 676 679 681 682 687 691 695 701 706 709 712 714 717 720 723 725 726 725 722 721 722 721 719
700 705 697 719 721 709 677 676 675 689 668 658 660 659 666 673 670 674 675 674 673 675 679 679 681 683 686 692 696 700 703 705 707 713 716 719 720 722 722 721 718 718 718 716
701 704 714 713 714 705 676 678 672 663 662 663 661 661 663 663 669 674 676 674 676 677 678 679 680 682 685 689 692 694 697 697 704 708 711 713 714 718 718 717 716 715 715 715
700 699 702 684 676 667 673 664 665 665 666 662 661 663 662 662 664 670 671 676 678 678 678 678 679 681 683 685 687 689 686 694 699 702 704 706 708 710 713 714 712 712 712 711
711 709 702 681 667 669 668 667 666 665 662 662 661 661 662 663 665 667 671 674 674 674 674 675 676 678 678 681 682 681 686 690 694 696 698 700 703 704 707 710 711 710 709 710
718 717 711 706 680 670 664 667 670 666 664 662 662 662 662 666 669 672 673 673 673 672 671 672 672 672 672 675 675 676 679 684 687 689 691 693 695 698 700 702 705 706 706 707
711 708 705 692 686 686 674 670 670 667 661 659 661 661 663 664 666 669 671 671 672 671 670 669 669 670 669 669 670 672 673 676 678 681 683 685 687 690 694 697 699 700 701 702